Terminal Aerodrome Forecast
Issued by NWS Pittsburgh, PA

Current Version | Previous Version | Graphics & Text | Print | Product List | Glossary On
Versions: 1 2 3 4 5 6 7 8 9 10 11 12 13 14 15 16 17 18 19 20 21 22 23 24 25 26 27 28 29 30 31 32 33 34 35 36
000
FTUS41 KPBZ 231455 AAB
TAFPIT
TAF AMD
KPIT 231455Z 2315/2418 08012G22KT P6SM -RA OVC025
     FM231600 06012G22KT 5SM -RA BR OVC010
     FM232100 05012KT 3SM -RA BR OVC008
     FM240200 02010KT 3SM -RASN BR OVC003
     FM240700 34005KT P6SM VCSH OVC008
     FM241200 31005KT P6SM OVC010=

USA.gov is the U.S. government's official web portal to all federal, state and local government web resources and services.